SCP
1 1 1 1 1 1 1 1 0 0 0 0 0 0 0 0 0 0 0 0 0 0 0 0 0 0 0 0 0 0 0 0 0 0 1 1 1 1
1 1 1 1 1 1 1 1 1 0 0 0 0 0 0 0 0 0 0 0 0 0 0 0 0 0 0 0 0 0 0 0 0 0 0 0 0 0
0 0 1 1 1 1 1 1 1 0 0 0 0 0 0 0 0 0 0 0 0 0 0 0 0 0 0 0 0 0 0 0 0 0 0 0 0 0
0 0 0 1 1 1 1 1 1 0 0 0 0 0 0 0 0 0 0 0 0 0 0 0 0 0 0 0 0 0 0 0 0 0 0 0 0 0
0 0 0 0 0 1 1 1 1 0 0 0 0 0 0 0 0 0 0 0 0 0 0 0 0 0 0 0 0 0 0 0 0 0 0 0 0 0
0 0 0 0 0 0 0 1 1 0 0 0 0 0 0 0 0 0 0 0 0 0 0 0 0 0 0 0 0 0 0 0 0 0 0 0 0 0
0 0 0 0 0 0 0 0 0 0 0 0 0 0 0 0 0 0 0 0 0 0 0 0 0 0 0 0 0 0 0 0 0 0 0 0 0 0
0 0 0 0 0 0 0 0 0 0 0 0 0 0 0 0 0 0 0 0 0 0 0 0 0 0 0 0 0 0 0 0 0 0 0 0 0 0
0 0 0 0 0 0 0 0 0 0 0 0 0 0 0 0 0 0 0 0 0 0 0 0 0 0 0 0 0 0 0 0 0 0 0 0 0 0
0 0 0 0 0 0 0 0 0 0 0 0 0 0 0 0 0 0 0 0 0 0 0 0 0 0 0 0 0 0 0 0 0 0 0 0 0 0
0 0 0 0 0 0 0 0 0 0 0 0 0 0 0 0 0 0 0 0 0 0 0 0 0 0 0 0 0 0 0 0 0 0 0 0 0 0
0 0 0 0 0 0 0 0 0 0 0 0 0 0 0 0 0 0 0 0 0 0 0 0 0 0 0 0 0 0 0 0 0 0 0 0 0 0
0 0 0 0 0 0 0 0 0 0 0 0 0 0 0 0 0 0 0 0 0 0 0 0 0 0 0 0 0 0 0 0 0 0 0 0 0 0
0 0 0 0 0 0 0 0 0 0 0 0 0 0 0 0 0 0 0 0 0 0 0 0 0 0 0 0 0 0 0 0 0 0 0 0 0 0
0 0 0 0 0 0 0 0 0 0 0 0 0 0 0 0 0 0 0 0 0 0 0 0 0 0 0 0 0 0 0 0 0 0 0 0 0 0
0 0 0 0 0 0 0 0 0 0 0 0 0 0 0 0 0 0 0 0 0 0 0 0 0 0 0 0 0 0 0 0 0 0 0 0 0 0
0 0 0 0 0 0 0 0 0 0 0 0 0 0 0 0 0 0 0 0 0 0 0 0 0 0 0 0 0 0 0 0 0 0 0 0 0 0
0 0 0 0 0 0 0 0 0 0 0 0 0 0 0 0 0 0 0 0 0 0 0 0 0 0 0 0 0 0 0 0 0 0 0 0 0 0
0 0 0 0 0 0 0 0 0 0 0 0 0 0 0 0 0 0 0 0 0 0 0 0 0 0 0 0 0 0 0 0 0 0 0 0 0 0
0 0 0 0 0 0 0 0 0 0 0 0 0 0 0 0 0 0 0 0 0 0 0 0 0 0 0 0 0 0 0 0 0 0 0 0 0 0
0 0 0 0 0 0 0 0 0 0 0 0 0 0 0 0 0 0 0 0 0 0 0 0 0 0 0 0 0 0 0 0 0 0 0 0 0 0
0 0 0 0 0 0 0 0 0 0 0 0 0 0 0 0 0 0 0 0 0 0 0 0 0 0 0 0 0 0 0 0 0 0 0 0 0 0
0 0 0 0 0 0 0 0 0 0 0 0 0 0 0 0 0 0 0 0 0 0 0 0 0 0 0 0 0 0 0 0 0 0 0 0 0 0
Wind_Speed
10 11 10 8 7 7 7 8 8 8 7 6 6 5 4 3 3 4 4 4 5 6 6 7 7 8 9 10 11 12 12 13 14 15 16 17 18 20
8 10 10 9 7 8 8 8 8 8 7 4 5 5 3 3 4 4 3 4 5 6 6 6 6 7 7 8 8 9 10 10 11 12 12 13 14 15
9 10 10 10 8 8 8 8 8 8 8 6 5 4 5 5 4 4 4 4 4 6 6 5 5 5 5 5 5 6 7 8 9 10 10 11 12 12
9 9 9 8 10 9 7 9 8 8 8 8 6 5 7 6 5 4 4 3 2 5 5 4 4 3 3 3 3 4 5 6 7 8 8 9 10 10
10 9 10 9 10 8 9 9 8 8 8 8 8 5 5 5 5 4 4 2 2 4 6 5 4 3 3 3 3 3 3 4 5 5 6 7 7 7
10 10 10 10 10 10 9 10 9 9 8 8 8 7 6 6 6 5 4 3 2 3 4 4 6 6 5 4 4 4 4 4 4 4 5 5 5 5
11 11 11 10 9 8 8 9 9 9 9 9 9 7 7 7 7 6 5 4 3 3 4 3 4 4 5 5 6 6 6 6 6 6 6 7 7 7
12 12 11 11 12 12 11 11 11 11 11 9 9 9 9 9 7 6 6 5 4 4 4 3 3 4 4 4 7 8 8 8 9 9 9 10 10 11
12 11 11 10 10 11 12 14 15 15 14 11 11 10 9 9 9 9 8 7 5 6 5 4 3 5 5 6 9 9 9 10 11 11 12 12 13 13
13 13 13 12 10 10 10 11 12 13 14 13 12 11 9 8 9 8 7 6 5 5 5 4 4 5 5 6 8 9 10 11 12 13 14 15 15 15
14 14 13 13 10 9 11 12 12 11 11 11 10 7 5 4 5 6 8 8 6 5 4 5 6 5 5 5 7 10 10 11 12 13 14 15 16 14
11 12 13 13 8 9 12 13 12 11 10 9 10 10 10 10 10 10 10 9 7 6 6 6 8 7 5 4 5 6 7 10 11 12 12 11 10 8
10 10 9 13 12 11 11 12 10 8 8 8 9 10 10 9 11 11 10 9 9 6 9 9 9 7 6 6 5 6 7 7 8 8 7 6 4 4
9 9 5 10 11 11 11 9 6 6 7 7 8 8 8 8 8 9 10 8 6 6 10 10 8 8 9 8 7 7 7 7 8 8 7 7 6 7
8 4 1 6 8 10 12 10 9 9 9 8 8 7 7 7 8 7 8 7 6 6 8 7 7 8 8 8 9 9 8 7 7 8 8 8 7 7
10 7 8 7 8 6 7 10 10 9 9 8 7 6 6 7 8 8 8 8 7 6 5 6 7 9 7 8 10 10 9 8 9 8 8 7 7 6
6 6 7 7 8 8 8 8 8 8 9 8 6 6 7 7 7 8 8 9 8 8 8 6 6 5 5 7 9 10 9 9 9 8 7 7 7 6
4 6 7 8 8 8 8 8 8 8 8 8 8 7 8 8 8 8 8 9 9 10 10 9 9 9 7 4 4 9 9 9 9 9 8 8 8 7
6 7 7 7 7 7 6 7 7 7 7 7 8 8 8 9 9 9 9 9 9 10 10 10 10 10 11 10 7 4 8 9 9 9 8 7 7 8
7 6 6 6 5 5 6 6 6 6 7 7 7 8 8 9 9 10 10 11 10 10 10 10 10 9 9 9 9 8 8 10 9 9 8 7 6 7
6 6 5 5 4 4 5 5 6 6 7 7 7 8 8 9 9 10 10 13 12 11 12 10 8 8 6 7 9 10 9 5 3 7 9 8 8 9
5 4 4 3 3 4 5 5 5 6 7 7 7 7 8 9 10 12 11 12 10 10 11 10 9 8 8 9 10 12 11 9 5 4 3 1 5 7
3 3 3 3 3 3 4 6 7 6 6 7 7 7 8 9 9 10 10 10 10 11 11 11 9 8 8 9 10 10 13 12 10 9 7 4 5 6
Wind_Direction
244 234 235 237 235 237 237 240 244 243 230 199 212 200 208 215 163 229 236 176 204 220 226 228 231 231 229 230 230 228 227 225 223 221 220 219 219 220
252 249 241 238 231 230 231 234 237 248 252 225 207 205 205 219 190 231 234 172 199 211 217 221 224 227 226 226 225 221 219 217 216 215 214 213 213 215
252 250 246 244 239 235 229 229 230 236 243 239 224 201 208 236 218 228 226 231 197 186 198 206 208 209 210 212 214 216 216 214 211 209 208 208 208 208
247 248 250 247 240 239 236 232 230 231 238 241 234 216 212 219 222 228 229 228 207 136 156 168 174 177 180 188 198 202 206 206 204 201 199 201 201 202
245 243 242 241 243 241 237 235 233 228 228 233 234 223 218 213 209 213 211 201 187 137 137 142 137 135 139 143 147 159 168 181 187 189 190 190 192 193
242 242 243 238 236 238 241 239 237 237 229 230 230 220 214 208 209 209 196 179 171 145 105 104 112 111 108 110 115 122 128 130 139 152 154 155 159 165
242 239 238 237 241 239 245 242 236 234 230 226 225 219 214 204 209 205 196 168 152 158 141 135 139 129 114 105 105 104 107 109 109 113 122 126 126 126
242 240 239 226 226 222 233 247 251 244 238 233 230 223 218 211 206 203 188 180 175 166 153 126 115 102 88 82 85 94 96 98 99 101 103 105 108 108
243 241 242 236 222 230 223 225 236 241 245 246 245 238 224 213 204 201 197 197 179 159 152 123 112 100 86 81 88 93 95 98 101 100 100 100 100 100
243 240 240 245 237 235 240 236 235 229 226 230 239 242 240 222 208 207 195 173 140 150 159 133 127 112 101 91 83 91 97 100 102 103 101 98 96 94
240 239 239 239 230 212 236 243 242 239 225 227 239 247 250 217 204 194 180 173 165 162 171 142 136 122 108 102 95 91 95 100 104 107 108 108 108 103
234 237 233 236 228 197 231 239 239 236 229 212 215 222 223 208 199 205 193 183 168 164 172 154 150 144 123 115 122 124 109 99 104 110 118 125 134 124
237 234 229 197 204 206 228 243 242 241 233 227 221 213 210 204 201 202 202 192 182 174 166 166 163 162 140 139 140 141 139 138 131 124 121 113 99 126
242 242 224 167 184 200 218 233 225 227 233 227 223 213 204 198 197 196 193 192 194 177 165 171 165 165 148 144 145 151 151 152 150 147 144 131 103 85
245 247 168 162 185 206 220 217 213 221 222 221 218 213 205 194 181 175 167 157 142 148 158 170 161 157 155 149 147 154 155 158 158 154 153 157 151 149
232 206 187 194 223 237 201 202 216 221 218 218 212 206 191 182 175 166 160 152 143 140 145 157 159 156 156 150 150 154 158 158 163 163 160 157 161 159
213 217 214 203 209 213 214 210 208 207 213 216 209 199 185 178 171 163 159 156 153 153 150 145 140 140 143 150 154 157 159 156 160 160 166 162 162 162
220 223 220 216 215 213 210 205 204 206 207 205 201 194 184 174 167 163 162 160 157 156 154 152 151 147 143 127 152 161 160 157 156 166 177 167 163 163
224 230 229 225 221 215 208 204 201 200 201 201 194 187 178 173 167 165 165 161 160 157 155 157 161 162 162 157 160 188 163 157 160 169 182 177 170 164
230 236 234 228 219 211 203 201 194 193 195 193 186 180 176 171 167 165 164 162 158 155 155 161 170 175 171 158 152 163 175 167 168 173 176 176 149 124
222 231 233 227 212 198 193 193 189 189 189 184 178 175 174 168 165 163 161 159 157 158 161 165 169 172 156 145 147 154 159 145 141 174 174 173 170 176
216 223 223 216 202 186 180 179 178 178 177 175 171 172 169 162 160 160 158 158 158 159 159 151 154 162 163 163 157 154 156 157 132 77 90 136 194 198
208 212 210 202 183 169 171 172 168 167 167 164 162 162 159 156 156 154 154 155 157 155 150 149 156 167 169 165 158 157 160 167 175 181 188 143 107 101